GW0421 Weather Reports


time (UTC)temp
F
wind
direction
speed
knots
gust
knots
rain 1hr
in
rain 24hr
in
rain mn
in
humidity
%
barometer
mb
20260505054024 61 94 3.5 10.4 0.00 0.02 0.00 54 1002.7
20260505053542 61 111 4.3 10.4 0.00 0.02 0.00 53 1002.4
20260505053141 61 109 4.3 10.4 0.00 0.02 0.00 54 1002.4
20260505052517 62 107 4.3 14.8 0.00 0.02 0.00 54 1002.2
20260505052040 62 111 5.2 14.8 0.00 0.02 0.00 55 1001.8
20260505051625 62 103 5.2 12.2 0.00 0.02 0.00 56 1001.8
20260505051032 62 85 4.3 11.3 0.00 0.02 0.00 56 1001.8
20260505050531 63 77 3.5 11.3 0.00 0.02 0.00 56 1001.9
20260505050149 63 95 5.2 11.3 0.00 0.02 0.00 56 1001.9
20260505041634 66 156 3.5 8.7 0.00 0.02 0.02 54 1001.8
20260505041018 66 153 4.3 8.7 0.00 0.02 0.02 55 1001.8
20260505040518 66 156 1.7 10.4 0.00 0.02 0.02 55 1001.7
20260505040129 66 360 6.1 12.2 0.00 0.02 0.02 55 1001.5
20260505035524 66 360 7.0 12.2 0.00 0.02 0.02 55 1001.3
20260505035030 66 360 6.1 9.6 0.00 0.02 0.02 55 1001.3
20260505034634 65 68 6.1 8.7 0.00 0.02 0.02 56 1001.3
20260505034023 64 82 3.5 8.7 0.00 0.02 0.02 56 1001.2
20260505033540 64 57 3.5 7.0 0.00 0.02 0.02 56 1001.3
20260505033100 64 65 0.9 2.6 0.00 0.02 0.02 56 1001.2
20260505032537 65 86 0.9 3.5 0.00 0.02 0.02 55 1001.3
20260505032034 65 77 0.9 3.5 0.00 0.02 0.02 54 1001.2
20260505031615 65 82 0.9 3.5 0.00 0.02 0.02 55 1001.3
20260505031030 66 99 1.7 3.5 0.00 0.02 0.02 54 1001.2
20260505030519 66 360 0.0 0.0 0.00 0.02 0.02 54 1001.2
20260505030143 67 290 0.0 0.9 0.00 0.02 0.02 54 1001.1
20260505025541 67 11 0.0 8.7 0.00 0.02 0.02 54 1001.0
20260505025038 66 360 3.5 8.7 0.00 0.02 0.02 54 1000.9
20260505024625 66 105 0.0 3.5 0.00 0.02 0.02 56 1000.9
20260505024027 66 167 0.9 3.5 0.00 0.02 0.02 57 1000.7
20260505023521 66 78 1.7 4.3 0.00 0.02 0.02 56 1000.6
20260505023124 66 38 1.7 4.3 0.00 0.02 0.02 56 1000.6
20260505022519 66 42 0.9 3.5 0.00 0.02 0.02 57 1000.6
20260505022047 66 84 1.7 3.5 0.00 0.02 0.02 55 1000.5
20260505021638 66 101 1.7 5.2 0.00 0.02 0.02 57 1000.5
20260505021036 66 101 2.6 5.2 0.00 0.02 0.02 58 1000.3
20260505020537 65 360 1.7 3.5 0.00 0.02 0.02 58 1000.2
20260505020157 64 78 1.7 3.5 0.00 0.02 0.02 61 1000.1
20260505015519 64 93 2.6 5.2 0.00 0.02 0.02 63 1000.1
20260505015019 65 90 2.6 3.5 0.00 0.02 0.02 63 1000.0
20260505014624 65 111 2.6 3.5 0.00 0.02 0.02 61 1000.1
20260505014039 66 113 1.7 3.5 0.00 0.02 0.02 62 1000.1
20260505013537 67 142 1.7 2.6 0.00 0.02 0.02 62 1000.0
20260505013048 67 175 0.9 2.6 0.00 0.02 0.02 61 1000.1
20260505012541 68 172 0.9 2.6 0.01 0.02 0.02 61 1000.3
20260505012020 68 184 0.9 3.5 0.01 0.02 0.02 62 1000.1
20260505011638 69 360 2.6 3.5 0.02 0.02 0.02 60 1000.1
20260505011020 69 360 1.7 2.6 0.02 0.02 0.02 57 1000.2
20260505010540 69 360 0.9 2.6 0.02 0.02 0.02 54 1000.4
20260505010158 69 360 0.0 4.3 0.02 0.02 0.02 58 1000.4
20260505005539 69 360 0.9 4.3 0.02 0.02 0.02 57 1000.5
20260505005032 69 360 0.0 2.6 0.02 0.02 0.02 54 1000.6
20260505004642 70 360 0.9 3.5 0.02 0.02 0.02 56 1000.7
20260505004027 70 360 0.0 8.7 0.02 0.02 0.02 57 1000.9
20260505003535 71 360 3.5 9.6 0.02 0.02 0.02 56 1000.7
20260505003139 72 360 5.2 15.6 0.02 0.02 0.02 52 1000.5
20260505002540 71 360 10.4 20.9 0.01 0.01 0.01 47 1000.8
20260505002044 72 360 7.8 27.8 0.01 0.01 0.01 48 1000.9
20260505001636 73 360 14.8 27.8 0.00 0.00 0.00 46 1001.1
20260505001019 76 360 17.4 27.8 0.00 0.00 0.00 39 1001.0
20260505000529 77 360 19.1 26.1 0.00 0.00 0.00 32 1000.8
20260505000158 79 360 12.2 22.6 0.00 0.00 0.00 30 1000.7
20260504235542 79 360 8.7 25.2 0.00 0.00 0.00 30 1000.6
20260504235037 79 360 8.7 16.5 0.00 0.00 0.00 31 1000.7
20260504234647 78 360 1.7 4.3 0.00 0.00 0.00 33 1000.6
20260504234032 79 360 0.9 3.5 0.00 0.00 0.00 33 1000.4
20260504233539 79 360 0.9 5.2 0.00 0.00 0.00 32 1000.3
20260504233151 79 360 2.6 5.2 0.00 0.00 0.00 32 1000.3
20260504232530 79 360 2.6 8.7 0.00 0.00 0.00 31 1000.3
20260504232032 79 360 5.2 10.4 0.00 0.00 0.00 31 1000.3
20260504231639 79 169 7.0 13.0 0.00 0.00 0.00 31 1000.4
20260504231032 79 152 6.1 10.4 0.00 0.00 0.00 32 1000.6
20260504230542 79 148 7.0 13.0 0.00 0.00 0.00 31 1000.5
20260504230153 79 138 7.8 13.0 0.00 0.00 0.00 31 1000.7
20260504225540 79 142 7.8 14.8 0.00 0.00 0.00 31 1000.7
20260504225035 80 131 10.4 20.0 0.00 0.00 0.00 31 1001.1
20260504224646 80 131 13.9 20.0 0.00 0.00 0.00 31 1000.9
20260504224032 81 147 13.0 18.2 0.00 0.00 0.00 29 1001.1
20260504223520 82 178 13.0 23.5 0.00 0.00 0.00 29 1001.1
20260504223143 83 145 16.5 23.5 0.00 0.00 0.00 28 1001.1
20260504222535 85 138 12.2 19.1 0.00 0.00 0.00 29 1001.3
20260504222024 85 118 7.8 14.8 0.00 0.00 0.00 29 1000.9
20260504221635 84 121 9.6 14.8 0.00 0.00 0.00 29 1001.1
20260504221043 84 111 8.7 12.2 0.00 0.00 0.00 27 1001.2
20260504220527 84 132 8.7 13.9 0.00 0.00 0.00 28 1001.1
20260504220145 84 138 9.6 13.0 0.00 0.00 0.00 27 1001.1
20260504215522 85 121 9.6 13.0 0.00 0.00 0.00 25 1001.0
20260504215032 85 117 6.1 13.0 0.00 0.00 0.00 23 1001.1
20260504214616 86 105 7.8 13.0 0.00 0.00 0.00 23 1001.1
20260504214033 85 98 7.0 13.9 0.00 0.00 0.00 23 1001.2
20260504213543 86 128 7.0 14.8 0.00 0.00 0.00 24 1001.2
20260504213131 86 117 9.6 14.8 0.00 0.00 0.00 25 1001.3
20260504212543 86 94 8.7 16.5 0.00 0.00 0.00 25 1001.4
20260504212026 86 105 7.8 12.2 0.00 0.00 0.00 24 1001.4
20260504211639 86 132 7.8 11.3 0.00 0.00 0.00 24 1001.5
20260504211043 86 126 7.8 15.6 0.00 0.00 0.00 25 1001.6
20260504210536 87 93 11.3 15.6 0.00 0.00 0.00 24 1001.5
20260504210157 87 66 4.3 12.2 0.00 0.00 0.00 23 1001.5
20260504205520 87 78 7.0 12.2 0.00 0.00 0.00 22 1001.7
20260504205038 87 50 3.5 12.2 0.00 0.00 0.00 21 1001.8
20260504204632 87 103 5.2 10.4 0.00 0.00 0.00 20 1001.8
20260504204041 87 115 7.0 11.3 0.00 0.00 0.00 23 1001.8
20260504203522 87 123 5.2 12.2 0.00 0.00 0.00 21 1001.9
20260504203137 87 72 8.7 12.2 0.00 0.00 0.00 21 1002.0
20260504202517 86 88 7.0 15.6 0.00 0.00 0.00 22 1002.0
20260504202039 86 68 3.5 15.6 0.00 0.00 0.00 21 1002.1
20260504201632 86 117 6.1 13.9 0.00 0.00 0.00 21 1002.1
20260504201022 86 117 4.3 12.2 0.00 0.00 0.00 21 1002.2
20260504200533 86 169 7.8 13.0 0.00 0.00 0.00 21 1002.3
20260504200158 86 136 6.1 13.9 0.00 0.00 0.00 22 1002.5
20260504195528 86 92 8.7 13.9 0.00 0.00 0.00 20 1002.6
20260504195020 86 126 7.8 13.9 0.00 0.00 0.00 21 1002.4
20260504194640 87 144 9.6 13.9 0.00 0.00 0.00 20 1002.4
20260504194018 87 97 2.6 14.8 0.00 0.00 0.00 20 1002.4
20260504193519 87 95 11.3 14.8 0.00 0.00 0.00 19 1002.8
20260504193149 86 103 7.8 12.2 0.00 0.00 0.00 20 1002.7
20260504192523 86 42 6.1 12.2 0.00 0.00 0.00 19 1002.6
20260504192018 86 78 4.3 14.8 0.00 0.00 0.00 19 1002.6
20260504191648 86 168 4.3 14.8 0.00 0.00 0.00 19 1002.8
20260504191034 86 67 7.8 12.2 0.00 0.00 0.00 19 1002.8
20260504190532 86 94 7.0 13.0 0.00 0.00 0.00 20 1002.8
20260504190133 86 81 7.0 13.0 0.00 0.00 0.00 21 1002.8
20260504185524 85 95 5.2 13.0 0.00 0.00 0.00 19 1003.0
20260504185022 85 97 7.8 13.0 0.00 0.00 0.00 20 1003.1
20260504184647 85 85 4.3 13.0 0.00 0.00 0.00 20 1003.0
20260504184033 85 76 6.1 13.0 0.00 0.00 0.00 21 1003.1
20260504183544 85 84 6.1 12.2 0.00 0.00 0.00 21 1002.9
20260504183150 85 52 3.5 9.6 0.00 0.00 0.00 21 1002.9
20260504182527 85 92 5.2 12.2 0.00 0.00 0.00 20 1003.1
20260504182021 85 100 7.0 13.0 0.00 0.00 0.00 19 1003.1
20260504181603 85 84 7.0 13.9 0.00 0.00 0.00 22 1003.1
20260504181041 85 71 2.6 13.9 0.00 0.00 0.00 22 1003.3
20260504180533 85 80 5.2 13.0 0.00 0.00 0.00 22 1003.3
20260504180152 85 95 6.1 11.3 0.00 0.00 0.00 21 1003.4
20260504175538 85 355 3.5 12.2 0.00 0.00 0.00 21 1003.5
20260504175020 85 66 7.0 12.2 0.00 0.00 0.00 21 1003.4
20260504174640 84 78 2.6 8.7 0.00 0.00 0.00 23 1003.5
20260504174026 83 28 2.6 7.8 0.00 0.00 0.00 23 1003.5
20260504173542 83 36 2.6 13.0 0.00 0.00 0.00 24 1003.5
20260504173148 83 76 3.5 13.0 0.00 0.00 0.00 23 1003.5
20260504172522 83 84 2.6 10.4 0.00 0.00 0.00 24 1003.5
20260504172032 83 78 6.1 10.4 0.00 0.00 0.00 25 1003.6
20260504171657 83 346 3.5 8.7 0.00 0.00 0.00 26 1003.6
20260504171033 83 76 2.6 9.6 0.00 0.00 0.00 26 1003.6
20260504170524 82 93 3.5 9.6 0.00 0.00 0.00 28 1003.6
20260504170207 82 69 3.5 9.6 0.00 0.00 0.00 28 1003.7
20260504160141 77 315 1.7 4.3 0.00 0.00 0.00 34 1003.0
20260504151038 71 263 6.1 9.6 0.00 0.00 0.00 46 1003.0
20260504150521 70 273 6.1 9.6 0.00 0.00 0.00 45 1003.0
20260504150216 70 259 6.1 10.4 0.00 0.00 0.00 45 1003.0
20260504141023 65 287 7.8 11.3 0.00 0.00 0.00 52 1003.2
20260504140547 64 247 7.8 11.3 0.00 0.00 0.00 53 1003.3
20260504140231 63 250 7.8 10.4 0.00 0.00 0.00 54 1003.3
20260504130527 56 255 6.1 8.7 0.00 0.00 0.00 65 1002.8
20260504130210 56 267 5.2 8.7 0.00 0.00 0.00 65 1002.9
20260504120135 52 206 2.6 4.3 0.00 0.00 0.00 68 1002.8
20260504110536 55 360 3.5 7.0 0.00 0.00 0.00 64 1002.7
20260504110159 55 360 3.5 7.0 0.00 0.00 0.00 64 1002.8
20260504100530 54 360 2.6 4.3 0.00 0.00 0.00 63 1003.3
20260504100212 54 360 1.7 4.3 0.00 0.00 0.00 63 1003.6
20260504090141 58 360 4.3 7.8 0.00 0.00 0.00 55 1003.9
20260504081621 61 360 4.3 7.8 0.00 0.00 0.00 51 1004.2
20260504081018 61 360 4.3 11.3 0.00 0.00 0.00 50 1004.3
20260504080531 61 360 5.2 11.3 0.00 0.00 0.00 50 1004.4
20260504080158 62 360 5.2 9.6 0.00 0.00 0.00 49 1004.3
20260504070209 64 360 8.7 12.2 0.00 0.00 0.00 44 1004.6
20260504060217 67 360 11.3 16.5 0.00 0.00 0.00 39 1004.9